Weather History for Fayetteville, NC

Change the Weather History Date:

Tuesday, February 14, 2012

  Actual Average Record
Temperature  
Mean Temperature 48 °F 47 °F  
Max Temperature 62 °F 59 °F 79 °F (1938)
Min Temperature 34 °F 35 °F 12 °F (1968)
Degree Days  
Heating Degree Days 17 18  
Month to date heating degree days 261 267  
Since 1 July heating degree days 1670 1993  
Cooling Degree Days 0 0  
Month to date cooling degree days 0 0  
Year to date cooling degree days 0 2  
Moisture  
Dew Point 33 °F    
Average Humidity 52    
Maximum Humidity 75    
Minimum Humidity 28    
Precipitation  
Precipitation 0.00 in 0.11 in 2.03 in (1984)
Month to date precipitation 0.48 1.30  
Year to date precipitation 2.42 4.60  
Sea Level Pressure  
Sea Level Pressure 30.09 in    
Wind  
Wind Speed 6 mph (SSW)    
Max Wind Speed 21 mph    
Max Gust Speed 25 mph    
Visibility 10 miles    
Events      
T = Trace of Precipitation, MM = Missing Value Source: NWS Daily Summary

Daily Weather History Graph

Daily Weather History Graph

Search for Another Location

Airport:

Trip Planner

Search our weather history database for the weather conditions in past years. The results will help you decide how hot, cold, wet, or windy it might be!

Date:

Astronomy

Feb. 14, 2012 Rise Set
Actual Time 7:03 AM EST 5:56 PM EST
Civil Twilight 6:37 AM EST 6:22 PM EST
Nautical Twilight 6:07 AM EST 6:52 PM EST
Astronomical Twilight 5:37 AM EST 7:21 PM EST
Moon 12:41 AM EST (2/14) 11:06 AM EST (2/14)
Length of Visible Light 11h 45m
Length of Day
10h 53m
Waning Gibbous, 50% of the Moon is Illuminated
Feb 14
Waning Gibbous
Feb 14
Last Quarter
Feb 21
New
Feb 29
First Quarter
Mar 8
Full

Hourly Weather History & Observations

Time (EST) Temp. Windchill Dew Point Humidity Pressure Visibility Wind Dir Wind Speed Gust Speed Precip Events Conditions
12:53 AM 34.0 °F 28.8 °F 26.1 °F 73% 30.15 in 10.0 mi SSW 5.8 mph - N/A   Clear
1:53 AM 36.0 °F 32.1 °F 26.1 °F 67% 30.13 in 10.0 mi SSW 4.6 mph - N/A   Clear
2:53 AM 37.0 °F - 27.0 °F 67% 30.12 in 10.0 mi Calm Calm - N/A   Scattered Clouds
3:53 AM 36.0 °F - 28.0 °F 73% 30.10 in 10.0 mi Calm Calm - N/A   Mostly Cloudy
4:53 AM 37.0 °F - 28.9 °F 73% 30.11 in 10.0 mi Calm Calm - N/A   Overcast
5:53 AM 37.0 °F 34.5 °F 28.9 °F 73% 30.11 in 10.0 mi South 3.5 mph - N/A   Overcast
6:53 AM 37.9 °F 34.4 °F 28.9 °F 70% 30.14 in 10.0 mi SSW 4.6 mph - N/A   Overcast
7:53 AM 39.0 °F 35.7 °F 30.0 °F 70% 30.14 in 10.0 mi NW 4.6 mph - N/A   Overcast
8:53 AM 42.1 °F 40.2 °F 32.0 °F 67% 30.15 in 10.0 mi West 3.5 mph - N/A   Overcast
9:53 AM 46.0 °F 42.5 °F 30.0 °F 54% 30.14 in 10.0 mi SSW 6.9 mph - N/A   Overcast
10:53 AM 48.9 °F - 30.9 °F 50% 30.14 in 10.0 mi Variable 4.6 mph - N/A   Overcast
11:53 AM 53.1 °F - 28.0 °F 38% 30.10 in 10.0 mi SW 8.1 mph - N/A   Overcast
12:53 PM 57.0 °F - 25.0 °F 29% 30.06 in 10.0 mi SW 10.4 mph - N/A   Overcast
1:53 PM 61.0 °F - 30.9 °F 32% 30.03 in 10.0 mi SW 12.7 mph - N/A   Scattered Clouds
2:53 PM 61.0 °F - 34.0 °F 36% 30.01 in 10.0 mi SSW 12.7 mph 20.7 mph N/A   Overcast
3:53 PM 59.0 °F - 34.0 °F 39% 30.01 in 10.0 mi SSW 15.0 mph 20.7 mph N/A   Mostly Cloudy
4:53 PM 57.9 °F - 36.0 °F 44% 30.02 in 10.0 mi SSW 13.8 mph - N/A   Overcast
5:53 PM 55.0 °F - 36.0 °F 49% 30.04 in 10.0 mi South 12.7 mph - N/A   Overcast
6:53 PM 54.0 °F - 37.9 °F 55% 30.05 in 10.0 mi South 8.1 mph - N/A   Overcast
7:53 PM 53.1 °F - 41.0 °F 64% 30.05 in 10.0 mi SSW 6.9 mph - N/A   Overcast
8:53 PM 52.0 °F - 41.0 °F 66% 30.06 in 10.0 mi South 5.8 mph - N/A   Overcast
9:53 PM 51.1 °F - 41.0 °F 68% 30.06 in 10.0 mi South 4.6 mph - N/A   Overcast
10:53 PM 50.0 °F - 41.0 °F 71% 30.07 in 10.0 mi Calm Calm - N/A   Overcast
11:53 PM 50.0 °F - 39.9 °F 68% 30.06 in 10.0 mi Calm Calm - N/A   Overcast